Location: *
(35.8189°N, 78.6447°W)
Time: 10:55:03
(UTC+00:00)

Daily predictions for brighter satellites

Satellite Brightness Start Highest point End
(mag) Time Altitude Azimuth Time Altitude Azimuth Time Altitude Azimuth
NOSS 3-4 (A) 4.2 23:23:32 10° NNW 23:30:24 47° NE 23:37:50 10° SE
NOSS 3-4 (C) 4.3 23:23:39 10° NNW 23:30:30 47° NE 23:37:54 10° SE
Orbus 7S? 3.8 23:28:17 10° SSW 23:31:37 73° SE 23:38:44 10° NE
Cosmos 2056 Rocket 4.0 23:29:56 10° S 23:34:59 41° ESE 23:40:03 10° NNE
USA 116 3.3 23:31:59 10° NNE 23:35:33 81° ESE 23:38:46 10° S
USA 32 4.2 23:31:29 10° N 23:36:44 84° W 23:41:58 10° S
CSL-04 Debris 4.1 23:35:20 10° SSE 23:40:41 71° ENE 23:46:04 10° N
DELTA 2 R/B (1) 3.8 23:35:20 10° W 23:40:57 73° NNW 23:46:34 10° ENE
Okean 1 Rocket 3.0 23:37:19 10° S 23:41:38 76° E 23:46:00 10° N
Cosmos 2237 Rocket 3.0 23:37:47 10° N 23:42:52 32° ENE 23:47:55 10° SE
Meteor 1-21 4.4 23:37:42 10° N 23:43:21 80° W 23:49:01 10° S
Cosmos 1025 Rocket 3.2 23:41:23 10° N 23:45:39 76° W 23:49:54 10° S
Cosmos 1624 Rocket 4.1 23:40:57 10° S 23:45:58 54° ESE 23:51:03 10° NNE
Cosmos 2333 Rocket 2.3 23:40:51 10° NNW 23:46:35 87° WSW 23:52:19 10° SSE
COSMOS 2455 4.3 23:47:36 10° NW 23:53:11 41° WSW 23:58:43 10° S
Cosmos 1980 4.1 23:48:05 10° N 23:53:25 42° ENE 23:58:44 10° SE
Cosmos 1707 3.1 23:49:53 10° N 23:53:37 42° E 23:57:20 10° SSE
